Simultaneous Nadir Overpasses (SNOs) Predictions

Prediction of SNOs between NOAA-20 and METOP-C Satellite Orbit:

Table of predicted SNOs for the next 14.0 days since TLE Epoch: 8/30/2019
Index Date (NOAA-20) Time (NOAA-20) Lat,Lon (NOAA-20) SZA (NOAA-20 ) Date (METOP-C) Time (METOP-C) Lat,Lon (METOP-C) SZA (METOP-C ) Distance(km) Time Diff (sec)
1 09/05/2019 13:18:47 73.38, -29.28 66.73 09/05/2019 13:19:54 73.35, -26.66 66.58 83.19 67
2 09/05/2019 14:09:30 -73.32, 138.16 113.32 09/05/2019 14:10:38 -73.26, 140.45 113.50 73.66 68
3 09/05/2019 15:00:11 73.08, -53.99 66.43 09/05/2019 15:01:22 73.03, -52.71 66.31 41.83 71
4 09/05/2019 15:50:54 -73.03, 113.43 113.62 09/05/2019 15:52:05 -72.99, 114.52 113.72 35.56 71
5 09/05/2019 16:41:36 72.83, -78.84 66.18 09/05/2019 16:42:48 72.81, -78.53 66.13 10.52 72
6 09/05/2019 17:32:18 -72.73, 88.69 113.92 09/05/2019 17:33:32 -72.71, 88.61 113.94 3.22 74
7 09/05/2019 18:23:04 72.73,-104.01 66.10 09/05/2019 18:24:11 72.73,-104.01 66.09 0.41 67
8 09/05/2019 19:13:48 -72.73, 63.31 113.89 09/05/2019 19:14:53 -72.74, 63.33 113.89 1.40 65
9 09/05/2019 20:04:34 72.73,-129.39 66.13 09/05/2019 20:05:33 72.71,-129.40 66.10 2.49 59
10 09/05/2019 20:55:18 -72.73, 37.93 113.86 09/05/2019 20:56:15 -72.72, 37.95 113.88 1.59 57
11 09/05/2019 21:46:04 72.74,-154.77 66.16 09/05/2019 21:46:54 72.74,-154.68 66.15 3.10 50
12 09/05/2019 22:36:47 -72.69, 12.65 113.88 09/05/2019 22:37:37 -72.70, 12.56 113.88 3.24 50
13 09/05/2019 23:27:33 72.69, 179.95 66.14 09/05/2019 23:28:16 72.72, 179.94 66.16 3.33 43
14 09/06/2019 00:18:17 -72.69, -12.73 113.85 09/06/2019 00:18:59 -72.68, -12.82 113.87 3.23 42
15 09/06/2019 01:09:03 72.69, 154.57 66.17 09/06/2019 01:09:38 72.70, 154.55 66.17 0.74 35
16 09/06/2019 01:59:47 -72.69, -38.11 113.83 09/06/2019 02:00:20 -72.71, -38.10 113.82 1.67 33
17 09/06/2019 02:50:33 72.70, 129.19 66.20 09/06/2019 02:51:00 72.68, 129.17 66.17 2.32 27
18 09/06/2019 03:41:17 -72.70, -63.50 113.80 09/06/2019 03:41:42 -72.69, -63.48 113.81 1.19 25
19 09/06/2019 04:32:03 72.70, 103.81 66.23 09/06/2019 04:32:21 72.71, 103.89 66.22 2.90 18
20 09/06/2019 05:22:46 -72.65, -88.77 113.82 09/06/2019 05:23:04 -72.67, -88.87 113.80 3.57 18
21 09/06/2019 06:13:33 72.70, 78.42 66.26 09/06/2019 06:13:43 72.69, 78.51 66.23 3.49 10
22 09/06/2019 07:04:16 -72.65,-114.15 113.79 09/06/2019 07:04:26 -72.65,-114.25 113.80 3.27 10
23 09/06/2019 07:55:02 72.66, 53.15 66.23 09/06/2019 07:55:05 72.66, 53.12 66.24 1.06 3
24 09/06/2019 08:45:46 -72.66,-139.54 113.76 09/06/2019 08:45:47 -72.67,-139.53 113.74 1.99 1
25 09/06/2019 09:36:32 72.66, 27.77 66.26 09/06/2019 09:36:27 72.64, 27.74 66.24 2.18 5
26 09/06/2019 10:27:16 -72.66,-164.92 113.73 09/06/2019 10:27:09 -72.65,-164.91 113.74 0.79 7
27 09/06/2019 11:18:02 72.66, 2.38 66.29 09/06/2019 11:17:48 72.67, 2.46 66.30 2.74 14
28 09/06/2019 12:08:45 -72.66, 169.70 113.70 09/06/2019 12:08:30 -72.63, 169.71 113.73 3.49 15
29 09/06/2019 12:59:31 72.67, -23.00 66.32 09/06/2019 12:59:09 72.65, -22.92 66.30 3.18 22
30 09/06/2019 13:50:14 -72.62, 144.42 113.73 09/06/2019 13:49:52 -72.61, 144.32 113.72 3.34 22
31 09/06/2019 14:41:00 72.62, -48.28 66.30 09/06/2019 14:40:31 72.63, -48.31 66.31 1.36 29
32 09/06/2019 15:31:44 -72.62, 119.04 113.70 09/06/2019 15:31:13 -72.64, 119.04 113.67 2.34 31
33 09/06/2019 16:22:30 72.62, -73.66 66.32 09/06/2019 16:21:53 72.61, -73.69 66.32 2.07 37
34 09/06/2019 17:13:14 -72.62, 93.66 113.67 09/06/2019 17:12:35 -72.62, 93.66 113.66 0.40 39
35 09/06/2019 18:04:00 72.63, -99.04 66.35 09/06/2019 18:03:14 72.64, -98.97 66.37 2.62 46
36 09/06/2019 18:54:44 -72.63, 68.28 113.64 09/06/2019 18:53:57 -72.60, 68.28 113.66 3.12 47
37 09/06/2019 19:45:30 72.63,-124.42 66.38 09/06/2019 19:44:36 72.62,-124.35 66.38 2.89 54
38 09/06/2019 20:36:13 -72.58, 43.00 113.66 09/06/2019 20:35:19 -72.58, 42.90 113.65 3.44 54
39 09/06/2019 21:26:59 72.58,-149.70 66.36 09/06/2019 21:25:58 72.59,-149.73 66.38 1.65 61
40 09/06/2019 22:17:43 -72.58, 17.62 113.63 09/06/2019 22:16:40 -72.61, 17.62 113.60 2.70 63
41 09/06/2019 23:08:29 72.59,-175.08 66.39 09/06/2019 23:07:20 72.57,-175.12 66.39 2.00 69
42 09/06/2019 23:59:13 -72.59, -7.76 113.60 09/06/2019 23:58:02 -72.59, -7.77 113.59 0.07 71
43 09/07/2019 00:49:57 72.49, 159.74 66.31 09/07/2019 00:48:43 72.50, 159.40 66.35 11.64 74
44 09/07/2019 01:40:40 -72.44, -32.84 113.74 09/07/2019 01:39:26 -72.46, -33.35 113.68 17.46 74
45 09/07/2019 02:31:21 72.19, 134.96 66.01 09/07/2019 02:30:11 72.17, 133.41 66.08 52.95 70
46 09/07/2019 03:22:04 -72.14, -57.62 114.04 09/07/2019 03:20:54 -72.14, -59.33 113.95 58.38 70
47 09/07/2019 04:12:45 71.88, 110.17 65.71 09/07/2019 04:11:38 71.89, 107.54 65.85 90.86 67
48 09/07/2019 05:03:28 -71.83, -82.42 114.33 09/07/2019 05:02:22 -71.81, -85.29 114.21 99.59 66




NCC Satellite Simultaneous Nadir Overpasses (SNOs) Prediction Service
